Location: Alsip
(41.6689°N, 87.7387°W)
Time: 07:53:08
(UTC+00:00)

XW-2B - Pass Details

Date: 21 October 2021
Orbit: 504 x 522 km, 97.5° (Epoch: 30 November)

Event Time Altitude Azimuth Distance (km) Brightness Sun altitude
Rises 23:32:10 0° 186° (S) 2,615 ? -6.7°
Reaches altitude 10° 23:34:22 10° 195° (SSW) 1,730 ? -7.1°
Maximum altitude 23:37:49 35° 262° (W) 841 ? -7.8°
Drops below altitude 10° 23:41:16 10° 330° (NNW) 1,734 ? -8.4°
Sets 23:43:29 0° 339° (NNW) 2,622 ? -8.8°
